Location: Alpha Ridge Park
(39.3209°N, 76.9128°W)
Time: 18:36:46
(UTC-04:00)

S-56A Canister/Altair - Pass Details

Date: 28 May 2019
Orbit: 633 x 2499 km, 38.9° (Epoch: 16 June)

Event Time Altitude Azimuth Distance (km) Brightness Sun altitude
Rises 05:34:51 0° 282° (WNW) 3,882 10.7 -2.5°
Reaches altitude 10° 05:37:12 10° 279° (W) 3,125 10.2 -2.1°
Maximum altitude 05:45:01 62° 201° (SSW) 1,752 9.2 -0.8°
Drops below altitude 10° 05:56:52 10° 125° (SE) 4,604 11.9 1.2°
Sets 06:01:05 0° 123° (ESE) 5,822 12.5 1.9°
